Lapse_Rate
8.0 8.3 7.7 7.9 7.2 6.9 6.7 6.6 6.9 6.9 6.9 6.8 6.7 6.4 6.3 6.2 6.1 6.4 6.7 6.4 6.7 6.2 5.9 6.0 5.9 5.5 5.9 5.8 5.9 5.8 5.8 5.8 5.9 6.0 5.9 5.8 5.7 5.6 5.7 5.3 5.4 5.2 5.2 5.2 5.2 5.3 5.3 5.2 5.3
7.9 7.7 7.8 7.5 7.2 7.2 7.0 7.3 7.2 6.9 6.9 6.9 6.8 6.7 6.6 6.7 6.5 6.7 6.9 6.6 6.4 6.7 6.3 5.9 6.1 5.6 5.8 6.0 6.1 6.0 5.9 6.0 5.9 6.2 6.1 6.2 5.9 5.8 5.7 5.4 5.5 5.4 5.4 5.2 5.2 5.3 5.4 5.4 5.4
7.5 7.8 8.1 7.7 7.8 7.2 7.1 7.6 7.4 6.9 6.7 6.6 7.1 7.1 7.1 7.0 6.8 6.7 6.7 7.0 6.4 6.6 6.5 6.4 6.2 6.1 5.7 6.0 6.3 6.3 6.2 6.2 6.2 6.1 6.4 6.3 6.4 5.9 5.8 5.5 5.7 5.6 5.6 5.4 5.2 5.3 5.4 5.3 5.3
7.3 7.7 7.7 7.7 7.4 7.7 7.4 8.2 7.6 7.2 7.1 6.9 6.9 7.4 7.3 7.4 6.8 6.7 6.7 6.8 6.8 6.6 6.5 6.4 6.5 6.4 6.5 6.5 6.5 6.7 6.6 6.9 6.3 6.5 6.6 6.7 6.3 5.8 6.0 5.8 5.7 5.6 5.7 5.6 5.4 5.3 5.2 5.5 5.4
7.4 7.5 7.7 7.8 7.3 7.7 7.8 7.8 7.8 7.5 7.8 7.5 7.3 7.4 7.5 7.7 7.4 6.7 6.7 6.8 6.9 6.9 6.7 6.5 6.5 6.6 6.5 6.6 6.9 6.7 6.8 6.7 6.9 6.9 6.9 6.7 6.6 6.2 6.0 5.8 5.8 5.7 5.7 5.6 5.4 5.4 5.5 5.5 5.6
7.6 7.5 7.4 7.6 7.5 7.7 7.8 8.0 8.1 7.8 7.8 7.7 7.5 7.3 7.3 7.6 7.8 7.0 6.7 6.5 6.6 7.0 6.9 6.7 6.6 6.6 6.6 6.7 6.9 6.9 7.0 6.9 7.0 6.8 6.6 6.6 6.5 6.4 6.2 5.8 5.7 5.9 5.7 5.5 5.6 5.5 5.6 5.6 5.6
7.5 7.3 7.2 7.3 7.2 7.5 7.4 7.2 7.2 7.6 7.7 7.6 7.2 6.9 6.9 7.3 7.5 7.5 6.7 6.4 6.4 6.9 6.9 6.6 6.6 6.7 6.8 6.5 6.8 6.8 7.0 7.1 7.0 7.0 6.9 6.9 6.7 6.3 6.3 6.0 5.8 5.9 5.7 5.7 5.6 5.7 5.7 5.8 5.6
7.3 7.0 7.0 6.9 7.1 7.2 7.3 7.2 7.2 7.4 7.6 7.7 8.3 7.8 7.5 7.5 7.6 7.5 7.2 6.6 6.3 6.5 6.8 6.6 6.4 6.6 6.6 6.6 6.6 6.7 6.7 6.8 6.8 6.7 6.8 6.8 6.5 6.3 6.4 6.1 6.0 6.0 5.9 5.8 5.7 5.8 5.9 5.8 5.8
7.1 7.0 6.9 6.7 6.6 6.8 7.3 7.5 7.8 7.5 7.3 7.5 7.7 7.9 7.7 7.4 7.7 7.8 7.3 7.2 6.5 6.3 6.5 6.7 6.5 6.5 6.6 6.7 6.5 6.7 6.8 6.8 6.8 6.8 6.7 6.5 6.5 6.3 6.1 6.1 6.1 6.0 5.9 5.9 5.9 6.0 6.0 5.8 5.9
6.9 7.1 6.9 6.6 6.6 6.7 6.8 7.6 7.9 7.7 7.7 8.0 7.9 8.0 8.2 7.6 7.7 8.1 7.8 7.5 7.0 6.7 6.7 6.9 6.7 6.5 6.5 6.6 6.8 6.6 6.7 6.8 6.8 6.8 6.7 6.6 6.5 6.3 6.1 6.1 6.1 6.1 6.0 6.0 6.1 6.0 6.0 5.9 5.7
6.8 6.8 6.6 6.7 6.6 6.6 6.9 7.0 7.7 7.2 7.2 7.8 7.8 7.7 8.5 8.3 7.9 8.3 8.0 7.6 7.0 6.8 6.7 6.8 6.8 6.5 6.6 6.7 6.8 6.9 6.7 6.7 6.7 6.6 6.6 6.8 6.8 6.4 6.2 6.1 6.1 6.3 6.3 6.1 6.2 6.1 6.1 5.9 5.9
6.7 6.7 6.5 6.8 6.7 6.8 6.9 7.0 7.1 7.2 7.2 7.5 8.1 7.8 8.5 8.9 8.6 8.5 8.3 8.0 7.8 7.1 6.8 6.6 6.7 6.9 6.8 6.7 6.7 6.7 6.8 6.7 6.7 6.7 6.6 6.7 6.6 6.5 6.3 6.2 6.2 6.3 6.3 6.2 6.3 6.2 6.1 6.1 5.9
6.8 6.7 6.6 6.6 6.6 6.7 6.8 7.1 7.1 7.4 7.4 7.6 8.0 8.7 8.9 9.0 9.0 8.5 8.6 8.3 8.2 8.0 7.2 7.1 6.9 6.9 6.8 6.7 6.8 6.9 6.9 6.7 6.6 6.6 6.8 6.8 6.6 6.5 6.3 6.3 6.3 6.4 6.3 6.2 6.3 6.2 6.0 5.8 5.9
6.8 6.9 6.8 6.8 6.8 6.9 7.1 7.3 7.4 7.4 7.8 7.8 8.1 8.8 9.1 8.8 8.9 8.7 8.8 8.7 8.5 8.3 7.6 7.3 7.1 7.1 6.9 6.8 6.8 6.8 6.7 6.6 6.7 6.7 6.7 6.6 6.6 6.5 6.4 6.3 6.1 6.2 6.2 6.3 6.3 6.2 6.2 6.1 6.0
6.8 7.0 7.1 7.1 7.1 7.1 7.3 7.6 7.5 7.7 7.9 8.1 8.3 8.7 9.2 9.0 9.1 8.9 8.7 8.5 8.4 8.4 8.1 7.7 7.3 7.2 7.2 7.0 6.8 6.9 6.8 6.9 6.9 6.7 6.7 6.6 6.5 6.5 6.4 6.4 6.2 6.1 6.1 6.1 6.2 6.2 6.2 6.2 6.1
6.9 7.0 7.2 7.3 7.2 7.3 7.6 7.7 7.8 7.8 7.7 7.8 8.2 8.8 9.2 9.3 9.0 9.2 8.8 8.5 8.2 8.3 8.4 8.1 7.8 7.6 7.5 7.4 7.1 6.8 7.0 6.9 6.9 7.0 7.0 6.8 6.6 6.5 6.5 6.4 6.3 6.3 6.2 6.1 6.0 6.0 6.0 6.0 6.1
7.1 7.0 7.3 7.4 7.4 7.5 7.4 7.9 7.5 7.6 7.7 7.7 7.9 8.6 9.1 9.1 9.1 9.1 8.8 8.6 8.3 8.1 8.2 8.2 8.1 7.9 7.8 7.6 7.3 7.1 6.9 7.0 6.9 6.8 6.9 6.7 6.5 6.5 6.4 6.4 6.3 6.2 6.2 6.2 6.1 6.1 5.9 5.9 5.9
7.1 7.1 7.5 7.6 7.5 7.6 7.6 7.4 7.5 7.8 7.9 8.0 8.1 8.1 8.9 9.0 9.0 8.8 8.9 8.4 7.7 7.8 8.0 8.2 8.3 8.1 7.9 7.8 7.6 7.5 7.3 7.0 7.0 6.8 6.8 6.7 6.5 6.3 6.3 6.3 6.3 6.4 6.4 6.3 6.1 6.0 5.9 5.8 5.8
7.3 7.3 7.7 7.9 7.7 7.9 7.7 7.5 7.7 7.8 8.0 8.1 8.2 8.3 8.3 9.0 9.3 9.1 8.6 8.0 8.2 8.5 8.3 8.2 8.2 8.4 8.3 8.1 8.1 8.0 7.9 7.6 7.3 7.1 6.9 6.8 6.7 6.5 6.2 6.2 6.3 6.5 6.5 6.3 5.9 5.7 5.7 5.7 5.6
7.4 7.6 7.9 7.9 7.7 7.8 7.8 7.7 7.7 7.9 8.3 8.3 8.3 8.3 8.4 8.3 8.5 8.8 8.6 8.0 8.4 9.1 8.7 8.5 8.3 8.2 8.4 8.2 8.0 8.0 7.8 7.9 7.6 7.3 7.0 6.9 6.8 6.5 6.5 6.4 6.2 6.3 6.3 6.3 6.1 5.8 5.7 5.5 5.3
7.6 7.7 7.9 7.8 7.8 7.8 8.0 7.8 7.7 7.9 8.0 8.1 8.1 8.2 8.3 8.4 8.4 8.5 8.5 8.2 8.2 8.4 8.4 8.5 8.2 8.2 8.3 8.1 8.0 8.0 8.1 7.9 7.9 7.7 7.5 7.3 7.1 6.8 6.6 6.5 6.4 6.6 6.5 6.3 6.1 6.1 6.0 5.7 5.5
7.5 7.7 7.9 7.8 7.8 8.0 8.0 8.5 8.2 8.1 8.0 7.9 8.2 8.1 8.3 8.5 8.6 8.7 8.6 8.3 8.2 8.2 8.6 8.6 8.4 8.5 8.4 8.1 8.1 7.9 8.2 8.1 8.0 7.8 7.6 7.5 7.2 7.0 7.1 6.8 6.6 6.4 6.4 6.4 6.1 5.7 5.7 5.8 5.8
7.3 7.5 7.7 7.9 8.0 8.0 8.2 8.1 8.3 8.2 8.2 7.9 8.0 8.2 8.4 8.4 8.6 8.7 8.7 8.7 8.6 8.5 8.4 8.6 8.7 8.5 8.6 8.7 8.0 8.2 7.7 7.9 7.9 7.8 7.7 7.7 7.6 7.4 7.2 7.0 6.9 6.7 6.6 6.5 6.4 6.0 5.9 5.7 5.6
7.3 7.5 7.9 8.1 8.0 8.0 8.1 8.1 8.4 8.2 8.2 8.1 7.8 7.9 8.2 8.4 8.5 8.5 8.7 8.8 8.8 8.6 8.7 8.8 8.7 8.6 8.6 8.7 8.4 8.5 8.1 8.1 7.9 7.9 8.0 7.9 7.8 7.6 7.4 7.2 7.1 7.0 6.9 6.7 6.5 6.2 6.0 5.7 5.4
7.5 7.8 8.3 8.7 8.6 8.6 7.8 7.5 8.2 8.1 8.0 7.9 8.1 8.3 8.4 8.5 8.5 8.3 8.2 8.3 8.4 8.5 8.5 8.5 8.6 8.5 8.3 8.6 8.3 8.3 8.5 8.0 8.1 7.8 7.7 7.8 7.8 7.7 7.7 7.5 7.4 7.3 6.9 6.7 6.6 6.3 6.0 5.7 5.4
7.4 7.8 8.2 7.8 8.0 8.0 7.5 7.5 7.8 7.8 7.7 7.8 7.9 8.0 8.2 8.5 8.4 8.3 8.2 8.2 8.1 8.2 8.3 8.5 8.3 8.2 8.0 8.4 8.6 8.2 8.2 8.2 8.3 8.1 7.8 7.5 7.8 7.9 7.6 7.4 7.3 7.4 7.1 6.8 6.7 6.6 6.2 5.6 5.5
7.2 7.2 7.2 6.7 6.6 6.7 7.2 7.1 7.5 7.6 7.6 7.7 7.9 8.1 8.1 8.2 7.9 7.9 8.1 8.1 7.9 8.0 8.1 8.1 8.1 8.0 7.8 8.1 8.4 8.5 8.3 8.4 8.4 8.3 7.9 7.7 7.5 7.7 7.7 7.6 7.4 7.3 7.2 6.9 6.9 6.7 6.6 6.3 5.8
7.0 7.0 6.9 6.9 7.2 7.1 7.1 6.9 7.8 7.7 7.9 8.0 8.0 8.2 8.3 8.3 8.2 7.9 7.9 8.2 8.0 8.0 8.3 8.2 7.9 8.0 7.6 7.9 8.2 8.6 8.6 8.5 8.6 8.6 8.3 8.0 7.6 7.4 7.6 7.6 7.6 7.5 7.4 7.2 6.9 6.8 6.7 6.4 6.1
6.9 6.7 6.7 6.8 6.6 7.3 7.1 7.4 7.7 7.9 7.8 7.9 8.1 8.1 8.0 8.1 7.8 7.7 7.7 7.5 7.8 7.8 8.0 8.1 7.9 8.1 7.8 8.0 8.0 8.5 8.8 8.9 8.9 8.9 8.8 8.4 8.0 7.3 7.3 7.4 7.5 7.7 7.6 7.4 7.1 6.8 6.8 6.7 6.4
7.1 6.8 6.7 6.9 6.7 6.4 6.6 6.4 7.1 7.3 7.4 7.7 7.8 7.9 7.8 7.5 7.4 7.4 7.4 7.4 7.6 7.7 7.6 7.6 7.4 7.4 7.6 7.9 8.2 8.3 8.7 8.7 8.9 9.1 8.9 8.5 8.0 7.4 7.3 7.3 7.3 7.3 7.5 7.5 6.9 6.6 6.8 6.8 6.7
Wind_Speed
7 2 1 2 0 2 9 9 2 8 3 2 10 4 3 0 2 2 4 17 23 21 24 21 20 19 19 22 19 21 22 23 23 21 21 20 22 21 19 19 17 16 15 14 13 13 12 11 11
7 3 1 3 3 6 7 8 10 6 7 10 8 5 0 1 2 6 17 18 24 21 23 21 19 21 19 20 20 19 20 21 22 20 20 20 19 19 18 18 15 13 13 13 12 12 11 11 10
7 2 2 2 2 4 4 7 3 6 9 3 4 4 3 3 3 14 13 22 22 20 22 21 18 22 20 19 18 19 20 20 20 20 20 19 19 19 17 16 15 14 12 12 11 10 11 11 11
3 2 2 2 6 1 2 5 2 2 4 6 5 7 5 5 8 5 19 23 21 20 22 21 20 21 21 19 19 19 20 19 19 19 20 19 18 17 16 15 15 14 13 11 11 10 11 12 12
2 1 3 3 3 2 5 4 6 5 4 4 2 5 4 5 4 13 19 20 21 18 21 21 22 20 20 19 18 18 18 20 19 19 19 17 17 17 16 15 14 14 13 11 11 12 11 11 13
1 1 1 3 5 3 5 6 7 6 5 4 4 6 5 6 13 14 17 18 18 18 19 21 21 22 22 20 19 19 18 18 19 18 17 17 15 15 15 14 14 13 12 11 12 12 13 12 12
2 1 3 2 2 4 4 9 7 6 7 5 7 3 3 8 13 17 14 15 15 16 15 17 20 22 22 22 20 19 19 18 18 17 15 15 15 15 14 13 14 12 12 11 13 13 13 13 12
1 1 3 1 3 5 5 5 6 6 1 7 4 5 6 13 17 18 14 13 13 14 14 13 17 20 21 20 19 19 18 17 17 17 16 15 15 14 15 12 11 14 12 12 12 13 13 11 10
1 0 2 1 1 6 7 10 4 2 4 5 3 4 4 23 22 20 17 14 14 12 14 14 14 17 18 18 19 18 18 16 16 16 16 14 13 15 14 12 12 11 12 11 10 10 13 10 8
2 1 2 2 3 7 10 12 11 5 7 5 7 6 15 20 22 23 21 19 19 18 16 15 14 14 17 16 16 17 16 16 15 14 15 12 12 11 11 12 12 11 11 10 11 12 13 11 10
2 3 1 7 9 9 5 6 6 5 9 13 13 8 16 20 20 21 21 23 23 20 15 16 15 16 16 12 14 14 14 14 14 14 13 12 11 11 10 9 11 11 11 12 12 12 12 10 9
4 8 9 8 4 3 6 4 5 11 15 13 6 10 19 22 21 21 21 21 21 21 20 18 15 14 15 15 13 14 12 14 12 15 15 13 11 11 11 9 10 9 10 9 9 8 7 9 9
9 7 6 10 11 11 11 15 12 14 17 13 6 13 20 21 22 21 21 20 22 21 20 19 17 14 12 11 13 13 12 13 14 14 15 14 12 8 11 10 10 9 9 9 8 8 8 8 8
2 8 11 10 13 8 9 13 2 7 6 10 8 16 19 20 19 20 20 19 19 19 20 19 18 16 15 11 11 10 14 15 14 14 16 14 14 12 11 10 10 10 9 8 8 7 7 7 8
6 10 14 4 2 1 4 6 5 7 10 10 5 12 17 18 18 23 20 19 20 17 17 18 18 17 16 15 11 12 13 15 14 15 16 16 15 13 12 9 8 11 11 10 8 8 7 6 7
4 2 5 3 5 3 3 4 8 10 9 10 6 9 14 17 20 15 16 16 14 15 17 16 15 18 17 15 10 11 13 14 13 15 16 18 16 15 13 8 8 12 11 10 7 6 6 7 6
2 4 6 7 4 4 4 8 10 16 13 7 9 8 10 12 13 9 13 14 15 16 17 18 17 18 18 15 12 13 15 12 13 14 15 17 17 17 14 10 10 12 11 8 7 7 7 6 7
6 6 4 9 2 4 5 10 12 13 8 11 8 7 7 7 11 11 14 14 15 17 18 18 16 17 17 12 11 10 10 10 14 14 14 16 17 17 16 13 11 12 8 8 8 8 7 7 7
4 5 10 8 4 5 7 8 9 10 9 15 15 13 7 4 4 11 15 17 18 19 20 19 21 18 13 12 13 12 12 11 11 11 17 17 18 19 17 12 11 12 10 10 9 8 9 7 7
5 6 6 8 3 3 6 5 7 9 7 9 11 13 14 8 1 9 14 14 10 15 19 19 19 19 17 13 12 11 11 11 11 11 15 20 19 19 17 13 11 12 10 11 11 10 8 8 8
4 6 3 4 5 1 7 3 5 3 2 4 8 7 11 11 9 8 4 3 9 15 18 18 20 20 19 18 12 10 9 8 11 12 12 14 21 20 20 18 13 12 11 10 11 11 13 10 8
2 4 6 4 2 4 4 3 2 3 6 7 9 9 9 10 11 9 10 9 7 7 14 16 18 18 17 19 16 19 14 14 13 13 13 13 21 19 21 19 17 14 11 12 11 10 11 10 8
2 2 1 4 1 2 3 4 1 2 2 3 8 12 12 10 9 8 9 10 10 9 9 13 17 17 17 19 18 16 16 13 11 12 15 16 13 19 21 20 16 14 12 13 13 11 12 10 6
3 1 3 2 1 7 2 4 6 3 1 1 4 9 12 15 14 10 7 7 9 9 8 4 10 16 17 19 21 20 20 16 14 14 13 13 13 13 15 16 14 13 13 13 12 12 12 7 4
3 5 3 3 4 7 3 4 8 1 2 3 5 7 9 10 10 12 13 10 9 10 10 7 6 13 18 20 20 22 21 19 18 16 14 14 13 13 15 16 14 13 14 14 12 12 11 9 8
3 3 4 6 6 7 2 5 0 1 1 4 6 7 9 10 10 11 13 13 13 13 12 9 11 13 17 20 20 18 19 14 14 16 13 12 12 13 14 16 16 17 16 15 13 11 9 11 9
2 1 3 1 1 4 3 3 5 2 6 7 8 6 7 9 11 12 12 12 12 13 13 10 12 12 10 18 17 17 17 18 16 16 14 13 12 11 15 17 17 17 17 16 14 12 12 10 11
1 5 2 1 3 5 2 4 3 4 6 9 10 8 7 8 10 10 10 11 13 12 11 9 9 9 6 13 16 16 17 17 16 14 16 17 14 13 13 16 17 16 16 17 16 13 12 13 10
4 3 3 0 3 4 5 5 3 6 6 11 12 10 8 8 9 10 10 10 12 11 9 7 9 8 3 4 10 15 16 17 16 16 16 16 15 14 14 15 16 17 16 16 15 14 13 14 13
0 2 2 3 1 3 5 8 9 8 10 10 12 9 9 9 10 10 10 10 9 9 9 6 7 8 6 7 5 6 10 11 13 15 15 16 16 17 17 16 16 14 15 15 15 14 13 14 14
Wind_Direction
199 302 275 288 225 26 35 24 313 50 94 62 130 147 237 199 213 16 134 150 145 152 151 153 150 139 137 133 132 130 132 136 140 141 140 138 136 139 134 133 125 128 130 131 134 132 130 125 121
174 173 162 272 25 40 28 355 28 75 127 134 135 114 228 15 59 109 134 154 149 151 153 151 148 143 145 136 136 134 133 139 141 143 141 141 142 144 140 136 131 130 132 134 136 139 135 133 132
164 225 275 64 71 54 4 350 2 171 135 132 117 61 39 20 53 147 138 151 149 154 155 151 152 145 145 137 143 141 140 141 142 142 145 146 150 150 147 145 143 140 144 138 140 141 139 139 138
167 205 207 65 101 132 257 310 29 248 112 96 123 89 102 357 146 168 150 151 151 157 156 157 154 153 150 153 152 149 146 144 144 148 153 155 157 158 153 157 155 154 151 154 156 146 143 136 139
49 340 25 32 42 295 251 328 14 327 102 116 137 122 89 103 106 148 155 158 156 161 160 160 158 161 158 158 156 154 152 153 152 153 155 159 162 167 166 166 165 166 160 165 156 161 146 146 145
72 290 83 87 33 339 310 334 320 357 50 123 92 120 103 125 132 155 159 166 163 162 166 160 162 162 161 161 163 162 162 162 158 159 158 161 164 174 175 167 173 175 174 159 152 160 148 154 154
33 14 92 74 39 302 299 332 298 342 340 15 137 107 100 164 146 149 159 164 171 170 170 171 167 165 164 167 169 167 167 171 163 164 163 161 163 171 167 171 175 172 165 165 157 163 155 158 159
71 318 133 142 58 1 308 306 296 303 47 136 190 174 166 169 156 145 151 166 177 179 181 179 177 171 171 174 176 172 173 172 168 167 173 168 166 170 166 166 184 178 168 170 168 165 159 159 167
161 160 193 183 186 338 320 305 338 134 189 188 251 201 125 150 153 149 152 168 180 191 189 186 183 178 174 178 180 175 176 178 176 178 179 175 176 175 167 173 171 178 173 169 168 171 159 167 179
251 247 225 225 274 301 308 291 294 273 289 239 224 109 130 152 161 161 166 173 185 187 192 192 188 182 179 178 181 182 180 185 187 179 181 175 180 180 176 174 179 176 177 177 175 181 161 179 186
168 249 278 290 287 276 274 278 289 278 282 259 225 198 158 167 178 173 176 177 187 184 185 192 191 184 182 178 185 186 185 187 182 189 190 180 174 183 180 177 182 186 183 184 187 175 186 183 200
241 241 259 292 296 269 266 269 270 271 263 293 256 200 178 183 185 181 181 181 184 185 187 184 195 191 185 179 184 188 189 188 187 192 192 182 184 188 190 185 184 183 190 183 191 183 185 196 200
234 270 267 263 276 273 275 272 287 267 276 301 253 185 199 191 190 190 186 183 180 188 188 187 189 189 189 191 186 194 196 196 196 191 190 190 192 192 190 192 194 188 198 196 192 192 202 201 202
280 278 277 269 259 249 266 271 317 288 317 317 221 205 207 208 190 191 189 184 188 188 189 187 190 191 188 194 196 197 198 194 199 199 197 194 196 194 194 191 193 198 197 203 205 203 203 216 213
313 317 318 66 117 270 243 257 217 305 313 301 234 215 214 214 196 197 188 186 187 187 188 192 191 190 192 193 198 205 204 203 202 204 200 195 199 196 198 199 200 200 200 198 201 206 213 223 222
309 297 328 352 357 63 268 322 304 3 347 341 310 227 216 214 221 189 186 188 186 186 188 193 194 193 194 193 193 203 209 211 211 209 207 205 203 202 201 202 205 201 203 206 205 209 214 224 226
12 333 320 318 2 334 326 301 6 345 345 352 318 257 225 224 228 176 181 180 184 189 188 191 197 197 198 196 197 205 205 211 212 216 215 207 208 208 211 213 211 203 204 208 207 215 222 221 230
320 316 298 282 309 261 264 316 357 13 20 357 2 325 252 225 219 184 167 169 188 194 198 186 191 195 195 196 200 206 211 215 215 217 219 213 213 211 213 219 218 213 218 216 215 219 215 230 229
288 282 295 282 253 301 12 354 10 10 28 37 31 15 350 285 234 177 175 191 191 188 188 197 182 188 184 195 201 205 210 213 215 217 218 219 213 211 212 221 217 215 221 223 219 222 229 229 232
235 275 272 292 19 257 8 359 340 19 30 34 29 31 27 28 158 176 186 212 206 196 199 193 198 186 187 191 200 208 208 208 216 217 215 215 218 216 212 216 220 217 218 220 219 215 225 234 214
209 223 220 274 331 195 319 174 13 353 360 42 52 38 32 35 43 36 20 274 244 208 206 197 199 196 192 190 190 190 201 213 203 214 217 212 212 215 216 214 218 216 221 222 223 221 224 233 217
264 238 256 254 227 322 347 318 223 347 4 12 12 36 36 17 16 16 7 8 7 336 231 218 207 201 197 192 191 193 195 202 207 200 207 211 209 206 210 215 217 218 218 225 222 224 227 234 226
19 26 206 304 251 294 179 255 172 233 203 15 351 356 8 16 19 16 2 356 4 12 359 236 206 204 203 199 202 197 205 203 198 202 198 201 205 210 204 207 213 219 219 224 229 223 221 232 231
296 212 73 59 308 253 2 266 270 225 243 274 330 344 343 340 344 360 15 6 359 352 346 7 244 221 207 206 207 206 207 205 203 200 198 202 203 205 214 207 206 211 219 222 222 223 217 204 234
37 10 328 256 242 279 15 253 271 286 257 283 310 324 322 327 328 336 346 353 351 349 344 329 300 249 225 215 210 211 212 210 207 201 206 201 205 206 204 204 206 210 214 219 221 212 194 184 202
51 340 302 284 270 292 116 247 59 308 243 287 293 308 323 342 345 344 347 349 348 347 346 329 311 292 233 221 216 214 214 215 215 208 206 210 207 207 202 199 205 208 209 213 212 211 203 206 212
112 223 7 272 104 263 266 260 255 203 265 267 284 311 327 333 336 337 341 345 348 347 344 327 326 319 238 224 217 218 217 218 218 217 215 213 212 210 203 203 204 206 211 212 207 211 210 203 216
29 138 213 151 268 266 256 279 249 347 334 323 302 306 305 328 332 328 327 335 340 348 344 333 330 344 291 234 222 219 222 220 220 217 214 217 216 210 206 207 208 212 208 208 208 216 209 211 218
161 162 72 61 255 273 277 253 237 282 308 307 305 313 308 314 321 319 312 317 327 329 344 333 326 318 332 337 249 227 226 227 221 220 216 218 218 214 211 214 219 207 208 209 207 215 210 215 220
214 136 203 286 243 255 284 274 281 277 308 302 294 301 317 317 311 307 302 307 319 316 331 332 328 324 320 306 267 274 251 239 225 222 222 216 214 210 213 212 223 221 208 203 207 210 205 211 217